Погода в Панфилове

Россия / Владимирская область     55°30′58″N   42°04′47″E
темп.,
°C
ветер,
м/с
пор.,
м/с
влажн.,
%
обл.,
%
осадки,
мм/ч
давл.,
гПа
погр.,
м
7 августа, вс
вс700:00+22ю365498 0.0 1020123
03:00+21ю355916 0.0 101996
06:00+20ююв356062 0.0 1019131
09:00+25ююз35443 0.0 1019412
12:00+30юз45321 0.0 10191674
15:00+31зюз44289 0.0 10172586
18:00+28зюз233816 0.0 1017290
21:00+23ю355275 0.0 101770
8 августа, пн
пн800:00+22ююз255286 0.1 1018102
03:00+18ю226438 0.1 101828
06:00+18всв11726 0.0 101939
09:00+22с226320 0.0 1020295
12:00+28ссв214151 0.0 10201065
15:00+29ссз4338100 0.0 10191209
18:00+28ссз234486 0.0 1019372
21:00+21ссв357451 0.0 102085
9 августа, вт
вт900:00+17всв228645 0.4 102031
03:00+16всв228976 0.4 102027
06:00+17св228614 0.0 102061
09:00+24вюв1254100 0.0 1019452
12:00+25ююз1248100 0.0 1019410
15:00+26з464464 0.0 1018504
18:00+24ссв1255100 0.1 101853
21:00+19ссв5786100 0.1 1019214
10 августа, ср
ср1000:00+17св2292100 0.1 101851
03:00+16зсз1195100 0.7 101916
06:00+17ссз1295100 1.0 1018106
09:00+18сз1290100 1.0 1019272
12:00+18з1290100 0.9 1019234
15:00+17ююз2496100 5.6 1019220
18:00+17юз3694100 0.8 1019293
21:00+16юз3595100 0.9 1019106
11 августа, чт
чт1100:00+13з38930 0.0 1019159
03:00+12зсз38961 0.0 1020186
06:00+13ссз4894100 0.0 1021494
09:00+15ссз5884100 0.1 1022752
12:00+21ссв58480 0.0 10221367
15:00+24с463840 0.0 10222294
18:00+22ссв354577 0.0 1022196
21:00+17в226120 0.0 102338